| time (UTC) | temp F | wind direction | speed MPH | gust MPH | rain 1hr in | rain 24hr in | rain mn in | humidity % | barometer mb |
| 20260504080711 | 109 | 0 | 0.0 | 0.0 | 0.00 | 0.00 | 0.00 | 69 | 742.0 |
| 20260504050133 | 110 | 0 | 0.0 | 0.0 | 0.00 | 0.00 | 0.00 | 80 | 742.0 |
| 20260504044604 | 110 | 0 | 0.0 | 0.0 | 0.00 | 0.00 | 0.00 | 79 | 743.0 |
| 20260504043036 | 112 | 0 | 0.0 | 0.0 | 0.00 | 0.00 | 0.00 | 82 | 744.0 |
| 20260504041508 | 110 | 0 | 0.0 | 0.0 | 0.00 | 0.00 | 0.00 | 84 | 742.0 |
| 20260504035940 | 110 | 0 | 0.0 | 0.0 | 0.00 | 0.00 | 0.00 | 83 | 743.0 |
| 20260504034412 | 106 | 0 | 0.0 | 0.0 | 0.00 | 0.00 | 0.00 | 89 | 740.0 |
| 20260504032844 | 107 | 0 | 0.0 | 0.0 | 0.00 | 0.00 | 0.00 | 89 | 741.0 |
| 20260504031316 | 108 | 0 | 0.0 | 0.0 | 0.00 | 0.00 | 0.00 | 87 | 741.0 |
| 20260504025747 | 108 | 0 | 0.0 | 0.0 | 0.00 | 0.00 | 0.00 | 89 | 741.0 |
| 20260504024219 | 107 | 0 | 0.0 | 0.0 | 0.00 | 0.00 | 0.00 | 90 | 740.0 |
| 20260504022651 | 111 | 0 | 0.0 | 0.0 | 0.00 | 0.00 | 0.00 | 87 | 743.0 |
| 20260504021123 | 105 | 0 | 0.0 | 0.0 | 0.00 | 0.00 | 0.00 | 97 | 739.0 |
| 20260504013621 | 110 | 0 | 0.0 | 0.0 | 0.00 | 0.00 | 0.00 | 96 | 742.0 |
| 20260504012053 | 99 | 0 | 0.0 | 0.0 | 0.00 | 0.00 | 0.00 | 99 | 736.0 |
| 20260504010525 | 98 | 0 | 0.0 | 0.0 | 0.00 | 0.00 | 0.00 | 99 | 735.0 |
| 20260504004956 | 100 | 0 | 0.0 | 0.0 | 0.00 | 0.00 | 0.00 | 99 | 736.0 |
| 20260504003428 | 93 | 0 | 0.0 | 0.0 | 0.00 | 0.00 | 0.00 | 99 | 732.0 |
| 20260504001900 | 91 | 0 | 0.0 | 0.0 | 0.00 | 0.00 | 0.00 | 99 | 731.0 |
| 20260504000332 | 84 | 0 | 0.0 | 0.0 | 0.00 | 0.00 | 0.00 | 99 | 726.0 |
| 20260503234804 | 84 | 0 | 0.0 | 0.0 | 0.00 | 0.00 | 0.00 | 99 | 726.0 |
| 20260503233235 | 81 | 0 | 0.0 | 0.0 | 0.00 | 0.00 | 0.00 | 99 | 724.0 |
| 20260503231707 | 81 | 0 | 0.0 | 0.0 | 0.00 | 0.00 | 0.00 | 99 | 724.0 |
| 20260503230139 | 80 | 0 | 0.0 | 0.0 | 0.00 | 0.00 | 0.00 | 99 | 724.0 |
| 20260503224610 | 80 | 0 | 0.0 | 0.0 | 0.00 | 0.00 | 0.00 | 99 | 723.0 |
| 20260503223042 | 79 | 0 | 0.0 | 0.0 | 0.00 | 0.00 | 0.00 | 99 | 723.0 |
| 20260503221513 | 80 | 0 | 0.0 | 0.0 | 0.00 | 0.00 | 0.00 | 99 | 723.0 |
| 20260503215945 | 80 | 0 | 0.0 | 0.0 | 0.00 | 0.00 | 0.00 | 99 | 724.0 |
| 20260503214417 | 81 | 0 | 0.0 | 0.0 | 0.00 | 0.00 | 0.00 | 99 | 724.0 |
| 20260503212848 | 81 | 0 | 0.0 | 0.0 | 0.00 | 0.00 | 0.00 | 99 | 724.0 |
| 20260503211320 | 81 | 0 | 0.0 | 0.0 | 0.00 | 0.00 | 0.00 | 99 | 724.0 |
| 20260503205752 | 81 | 0 | 0.0 | 0.0 | 0.00 | 0.00 | 0.00 | 99 | 724.0 |
| 20260503204224 | 82 | 0 | 0.0 | 0.0 | 0.00 | 0.00 | 0.00 | 99 | 725.0 |
| 20260503202656 | 82 | 0 | 0.0 | 0.0 | 0.00 | 0.00 | 0.00 | 99 | 725.0 |
| 20260503201127 | 82 | 0 | 0.0 | 0.0 | 0.00 | 0.00 | 0.00 | 99 | 725.0 |
| 20260503195559 | 82 | 0 | 0.0 | 0.0 | 0.00 | 0.00 | 0.00 | 99 | 724.0 |
| 20260503194030 | 83 | 0 | 0.0 | 0.0 | 0.00 | 0.00 | 0.00 | 99 | 725.0 |
| 20260503192502 | 83 | 0 | 0.0 | 0.0 | 0.00 | 0.00 | 0.00 | 99 | 725.0 |
| 20260503190934 | 84 | 0 | 0.0 | 0.0 | 0.00 | 0.00 | 0.00 | 99 | 726.0 |
| 20260503185406 | 85 | 0 | 0.0 | 0.0 | 0.00 | 0.00 | 0.00 | 99 | 726.0 |
| 20260503183838 | 84 | 0 | 0.0 | 0.0 | 0.00 | 0.00 | 0.00 | 99 | 726.0 |
| 20260503182310 | 84 | 0 | 0.0 | 0.0 | 0.00 | 0.00 | 0.00 | 99 | 726.0 |
| 20260503180741 | 84 | 0 | 0.0 | 0.0 | 0.00 | 0.00 | 0.00 | 99 | 726.0 |
| 20260503175213 | 83 | 0 | 0.0 | 0.0 | 0.00 | 0.00 | 0.00 | 99 | 726.0 |
| 20260503173645 | 84 | 0 | 0.0 | 0.0 | 0.00 | 0.00 | 0.00 | 99 | 726.0 |
| 20260503172117 | 84 | 0 | 0.0 | 0.0 | 0.00 | 0.00 | 0.00 | 99 | 726.0 |
| 20260503170548 | 85 | 0 | 0.0 | 0.0 | 0.00 | 0.00 | 0.00 | 99 | 727.0 |
| 20260503150202 | 87 | 0 | 0.0 | 0.0 | 0.00 | 0.00 | 0.00 | 99 | 728.0 |
| 20260503131345 | 92 | 0 | 0.0 | 0.0 | 0.00 | 0.00 | 0.00 | 82 | 731.0 |